Date String (YYYY-MM-DD hh:mm:ss) UTC,Instrument flags,Ambient pressure (hPa),Sample flow (lpm),Bypass flow (lpm),Sample temperature (°C),Ambient temperature (°C),ASC tube jacket temperature (°C),LED temperature (°C),Box temperature (°C),Sample RH (%),Span deviation,Mass concentration (μg/m³),Mass concentration (μg/m³),Mass concentration (μg/m³)
DateTimeUTC,F1_M11,P_M11,Q1_M11,Q2_M11,T1_M11,T2_M11,T3_M11,T4_M11,T5_M11,U1_M11,ZSPAN_M11,X0_M11,X2_M11,X1_M11
2022-02-16 17:00:00,,0816.3,5.00,0.00,22.6,22.3,00.0,31.5,24.4,14.5,0000.0,0009.31,0005.39,0004.89
2022-02-16 17:01:00,,0816.3,5.01,0.00,22.6,22.2,00.0,31.5,24.4,14.5,0000.0,0009.28,0005.40,0004.92
2022-02-16 17:02:00,,0816.3,5.01,0.00,22.6,22.1,00.0,31.5,24.4,14.5,0000.0,0009.35,0005.44,0004.94
2022-02-16 17:03:00,,0816.3,5.00,0.00,22.6,22.1,00.0,31.5,24.3,14.5,0000.0,0009.83,0005.48,0004.96
2022-02-16 17:04:00,,0816.2,4.99,0.00,22.6,22.0,00.0,31.5,24.3,14.5,0000.1,0009.93,0005.49,0004.98
2022-02-16 17:05:00,,0816.3,4.99,0.00,22.5,22.0,00.0,31.5,24.3,14.4,0000.5,0010.07,0005.55,0005.02
2022-02-16 17:06:00,,0816.3,5.00,0.00,22.5,21.9,00.0,31.5,24.3,14.4,0000.0,0010.38,0005.63,0005.03
2022-02-16 17:07:00,,0816.2,5.01,0.00,22.5,21.9,00.0,31.5,24.3,14.4,0000.0,0010.51,0005.66,0005.03
2022-02-16 17:08:00,,0816.1,4.99,0.00,22.5,21.8,00.0,31.5,24.3,14.4,0000.0,0010.49,0005.66,0005.02
2022-02-16 17:09:00,,0816.2,5.00,0.00,22.5,21.8,00.0,31.5,24.2,14.4,0000.1,0010.56,0005.66,0005.01
2022-02-16 17:10:00,,0816.2,5.02,0.00,22.5,21.8,00.0,31.5,24.2,14.4,0000.8,0010.17,0005.68,0005.02
2022-02-16 17:11:00,,0816.1,4.99,0.00,22.4,21.7,00.0,31.5,24.2,14.4,0000.5,0010.16,0005.74,0005.03
2022-02-16 17:12:00,,0816.2,5.00,0.00,22.4,21.7,00.0,31.5,24.1,14.4,0000.5,0010.37,0005.77,0005.05
2022-02-16 17:13:00,,0816.2,5.01,0.00,22.4,21.7,00.0,31.5,24.1,14.5,0001.0,0010.79,0005.81,0005.07
2022-02-16 17:14:00,,0816.2,5.00,0.00,22.4,21.6,00.0,31.4,24.1,14.6,0000.8,0010.66,0005.88,0005.08
2022-02-16 17:15:00,,0816.2,5.00,0.00,22.4,21.6,00.0,31.4,24.1,14.6,0000.8,0010.67,0005.91,0005.09
2022-02-16 17:16:00,,0816.2,5.01,0.00,22.3,21.6,00.0,31.4,24.1,14.6,0000.0,0010.60,0005.87,0005.08
2022-02-16 17:17:00,,0816.2,5.02,0.00,22.3,21.6,00.0,31.4,24.0,14.5,0000.0,0010.48,0005.82,0005.07
2022-02-16 17:18:00,,0816.2,4.99,0.00,22.3,21.6,00.0,31.4,24.0,14.5,0000.0,0010.55,0005.81,0005.07
2022-02-16 17:19:00,,0816.2,4.99,0.00,22.3,21.6,00.0,31.4,24.0,14.4,0000.0,0010.43,0005.77,0005.05
2022-02-16 17:20:00,,0816.1,4.99,0.00,22.3,21.5,00.0,31.4,24.0,14.3,0000.0,0010.94,0005.74,0005.04
2022-02-16 17:21:00,,0816.1,5.02,0.00,22.2,21.5,00.0,31.4,24.0,14.3,0000.0,0010.88,0005.71,0005.02
2022-02-16 17:22:00,,0816.1,4.99,0.00,22.2,21.5,00.0,31.3,23.9,14.2,0000.0,0010.67,0005.64,0004.99
2022-02-16 17:23:00,,0816.1,5.00,0.00,22.2,21.4,00.0,31.3,23.9,14.2,0000.0,0010.81,0005.65,0004.95
2022-02-16 17:24:00,,0816.1,5.00,0.00,22.2,21.7,00.0,31.3,24.0,14.2,0000.0,0011.25,0005.63,0004.91
2022-02-16 17:25:00,,0816.2,5.01,0.00,22.3,22.4,00.0,31.4,24.2,14.1,0000.0,0011.35,0005.57,0004.88
2022-02-16 17:26:00,,0816.2,5.00,0.00,22.5,23.1,00.0,31.4,24.4,14.0,0000.0,0011.49,0005.57,0004.84
2022-02-16 17:27:00,,0816.2,5.01,0.00,22.6,23.1,00.0,31.4,24.6,14.0,0000.0,0011.58,0005.59,0004.80
2022-02-16 17:28:00,,0816.1,5.00,0.00,22.6,22.9,00.0,31.4,24.5,14.1,0000.0,0011.46,0005.57,0004.78
2022-02-16 17:29:00,,0816.2,4.99,0.00,22.6,22.7,00.0,31.4,24.4,14.1,0000.0,0011.49,0005.59,0004.77
2022-02-16 17:30:00,,0816.2,5.00,0.00,22.6,22.5,00.0,31.5,24.3,14.1,0000.0,0012.41,0005.60,0004.77
2022-02-16 17:31:00,,0816.3,5.00,0.00,22.5,22.3,00.0,31.5,24.3,14.1,0000.0,0011.75,0005.60,0004.78
2022-02-16 17:32:00,,0816.3,5.00,0.00,22.5,22.2,00.0,31.5,24.3,14.0,0000.0,0012.02,0005.62,0004.77
2022-02-16 17:33:00,,0816.3,5.01,0.00,22.5,22.1,00.0,31.5,24.2,14.0,-000.6,0012.15,0005.64,0004.77
2022-02-16 17:34:00,,0816.3,5.00,0.00,22.5,22.0,00.0,31.5,24.2,14.0,-000.6,0012.65,0005.62,0004.77
2022-02-16 17:35:00,,0816.3,4.99,0.00,22.4,21.9,00.0,31.4,24.1,14.0,-000.4,0012.13,0005.56,0004.75
2022-02-16 17:36:00,,0816.3,5.01,0.00,22.4,21.8,00.0,31.4,24.1,14.0,0000.2,0011.65,0005.51,0004.73
2022-02-16 17:37:00,,0816.4,5.01,0.00,22.4,21.7,00.0,31.4,24.1,14.0,-000.4,0011.43,0005.47,0004.73
2022-02-16 17:38:00,,0816.3,4.99,0.00,22.3,21.7,00.0,31.4,24.0,14.1,-000.6,0011.91,0005.44,0004.73
2022-02-16 17:39:00,,0816.3,4.99,0.00,22.3,21.6,00.0,31.4,24.0,14.2,-000.0,0011.94,0005.43,0004.73
2022-02-16 17:40:00,,0816.3,4.99,0.00,22.3,21.6,00.0,31.4,24.0,14.3,0000.0,0011.87,0005.39,0004.72
2022-02-16 17:41:00,,0816.3,5.01,0.00,22.3,21.6,00.0,31.4,23.9,14.3,0000.4,0010.89,0005.37,0004.72
2022-02-16 17:42:00,,0816.4,5.00,0.00,22.2,21.5,00.0,31.4,23.9,14.3,0000.3,0010.86,0005.38,0004.71
2022-02-16 17:43:00,,0816.4,4.99,0.00,22.2,21.5,00.0,31.3,23.9,14.4,0000.0,0010.68,0005.39,0004.70
2022-02-16 17:44:00,,0816.3,5.02,0.00,22.2,21.5,00.0,31.3,23.9,14.4,0000.0,0010.64,0005.38,0004.70
2022-02-16 17:45:00,,0816.3,4.99,0.00,22.2,21.4,00.0,31.3,23.9,14.3,0000.0,0010.19,0005.39,0004.70
2022-02-16 17:46:00,,0816.3,4.99,0.00,22.1,21.4,00.0,31.3,23.8,14.2,0000.0,0010.22,0005.37,0004.69
2022-02-16 17:47:00,,0816.3,5.00,0.00,22.1,21.5,00.0,31.3,23.8,14.3,0000.0,0010.43,0005.37,0004.69
2022-02-16 17:48:00,,0816.4,5.00,0.00,22.2,22.0,00.0,31.3,24.0,14.3,0000.0,0010.98,0005.34,0004.68
2022-02-16 17:49:00,,0816.4,5.01,0.00,22.3,22.9,00.0,31.3,24.3,14.2,0000.0,0010.29,0005.30,0004.66
2022-02-16 17:50:00,,0816.4,5.00,0.00,22.5,23.2,00.0,31.4,24.5,14.1,0000.0,0010.54,0005.29,0004.65
2022-02-16 17:51:00,,0816.4,5.01,0.00,22.5,23.0,00.0,31.4,24.5,14.0,0000.0,0010.64,0005.25,0004.63
2022-02-16 17:52:00,,0816.5,4.99,0.00,22.5,22.7,00.0,31.4,24.4,14.0,0000.0,0011.05,0005.24,0004.62
2022-02-16 17:53:00,,0816.5,5.01,0.00,22.5,22.5,00.0,31.4,24.3,14.1,0000.0,0010.92,0005.23,0004.61
2022-02-16 17:54:00,,0816.5,5.00,0.00,22.5,22.3,00.0,31.4,24.3,14.1,0000.0,0010.87,0005.19,0004.60
2022-02-16 17:55:00,,0816.5,4.99,0.00,22.5,22.2,00.0,31.4,24.2,14.1,0000.0,0011.20,0005.14,0004.58
2022-02-16 17:56:00,,0816.7,5.01,0.00,22.4,22.1,00.0,31.4,24.2,14.0,0000.0,0011.55,0005.13,0004.56
2022-02-16 17:57:00,,0816.8,5.00,0.00,22.4,22.0,00.0,31.4,24.1,14.1,0000.0,0011.07,0005.16,0004.57
2022-02-16 17:58:00,,0816.7,5.02,0.00,22.4,21.9,00.0,31.4,24.1,14.1,0000.0,0011.26,0005.14,0004.56
2022-02-16 17:59:00,,0816.9,4.99,0.00,22.4,21.8,00.0,31.4,24.1,14.1,0000.0,0011.05,0005.13,0004.54
